Language: 


Des rapports , des résumés tant et plus, au choix de chacun....


Données Historiques de Météogheer
Journalier Rapport pour Février 21, 2018 Unitée:  Impériale    Métrique   Les deux
Suivant Jour »
Journalier Hebdomadaire Mensuel Annuel Sur mesure
  Max: Min: Moyenne:
Température: 43 °F 31.1 °F 35.6 °F
Point de rosée: 33.8 °F 26.6 °F 30.4 °F
Humidité: 96% 53% 82%
Vent: 11.4mph 0mph 6mph
Rafales: 15.4mph - -
Vent- - ENE
Pression: 30.3 in 30.2 in -
Pluie: 0.01 in    
Historical Graphs
 
 
Données tabulaires pour Février 21, 2018
Heure Température Point de rosée Pression Vent Vent Rafales Humidité Pluie Taux (Horaire) Conditions
00:00 36 °F 32 °F 30.2 in NE 2.9 mph 4.9 mph 86% 0 in
00:05 35.8 °F 32 °F 30.2 in North 4 mph 4.9 mph 86% 0 in
00:10 35.6 °F 33.8 °F 30.2 in NNE 6.5 mph 6.5 mph 87% 0 in
00:15 35.4 °F 32 °F 30.2 in NE 6 mph 6.5 mph 88% 0 in
00:20 35.4 °F 32 °F 30.2 in NE 5.6 mph 6.3 mph 88% 0 in
00:25 35.1 °F 32 °F 30.2 in NE 4.3 mph 6.5 mph 88% 0 in
00:30 34.9 °F 32 °F 30.2 in NE 4.9 mph 6.5 mph 89% 0 in
00:35 34.9 °F 32 °F 30.2 in NNE 6.5 mph 6.5 mph 89% 0 in
00:40 34.7 °F 32 °F 30.2 in NE 6.3 mph 6.5 mph 90% 0 in
00:46 34.7 °F 32 °F 30.2 in North 4.3 mph 6.5 mph 90% 0 in
00:51 34.5 °F 32 °F 30.2 in NNE 2.2 mph 6.5 mph 91% 0 in
00:56 34.5 °F 32 °F 30.2 in North 5.4 mph 6.5 mph 91% 0 in
01:01 34.3 °F 32 °F 30.2 in NNE 3.4 mph 5.6 mph 91% 0 in
01:06 34.3 °F 32 °F 30.2 in NNE 4.3 mph 6.3 mph 91% 0 in
01:11 34.3 °F 32 °F 30.2 in NE 4 mph 6.3 mph 92% 0 in
01:16 34.2 °F 32 °F 30.2 in Calm   7.4 mph 92% 0 in
01:21 34.2 °F 32 °F 30.2 in NE 5.4 mph 7.4 mph 92% 0 in
01:26 34.2 °F 33.8 °F 30.2 in North 4.9 mph 6 mph 93% 0 in
01:31 34.2 °F 33.8 °F 30.2 in NNE 6.3 mph 6.3 mph 93% 0 in
01:36 34.2 °F 33.8 °F 30.2 in NE 7.4 mph 7.4 mph 93% 0 in
01:41 34 °F 32 °F 30.2 in NNE 4.9 mph 7.4 mph 93% 0 in
01:46 33.8 °F 32 °F 30.2 in NE 5.4 mph 7.4 mph 93% 0 in
01:51 33.8 °F 32 °F 30.2 in NNE 3.8 mph 5.6 mph 93% 0 in
01:56 33.6 °F 32 °F 30.2 in NE 6 mph 6 mph 93% 0 in
02:01 33.6 °F 32 °F 30.2 in NE 4.3 mph 6 mph 93% 0 in
02:06 33.4 °F 32 °F 30.2 in NE 6 mph 6.5 mph 93% 0 in
02:11 33.4 °F 32 °F 30.2 in NNE 4.3 mph 6.5 mph 93% 0 in
02:16 33.4 °F 32 °F 30.2 in North 6.5 mph 6.5 mph 93% 0 in
02:21 33.3 °F 32 °F 30.2 in Calm   6.5 mph 93% 0 in
02:26 33.3 °F 32 °F 30.2 in Calm   6.5 mph 93% 0 in
02:31 33.1 °F 32 °F 30.2 in NE 5.6 mph 5.6 mph 93% 0 in
02:36 33.1 °F 32 °F 30.2 in North 3.4 mph 5.6 mph 94% 0 in
02:41 33.1 °F 32 °F 30.2 in NNE 6.3 mph 6.3 mph 94% 0 in
02:46 33.1 °F 32 °F 30.2 in North 3.8 mph 6.3 mph 94% 0 in
02:51 33.1 °F 32 °F 30.2 in NE 3.6 mph 6.3 mph 94% 0 in
02:56 33.1 °F 32 °F 30.2 in NNE 3.4 mph 7.4 mph 94% 0 in
03:02 33.1 °F 32 °F 30.2 in NNE 4.9 mph 7.4 mph 95% 0 in
03:07 33.1 °F 32 °F 30.2 in NE 3.1 mph 5.8 mph 95% 0 in
03:12 32.9 °F 32 °F 30.2 in NNE 5.4 mph 5.8 mph 95% 0 in
03:17 32.9 °F 32 °F 30.2 in NNE 3.6 mph 6.5 mph 94% 0 in
03:22 32.7 °F 32 °F 30.2 in NE 3.1 mph 6.5 mph 94% 0 in
03:27 32.7 °F 32 °F 30.2 in NE 4 mph 6.3 mph 94% 0 in
03:32 32.7 °F 32 °F 30.2 in NNE 5.4 mph 5.6 mph 94% 0 in
03:37 32.5 °F 32 °F 30.2 in NNE 4.7 mph 6.7 mph 95% 0 in
03:42 32.5 °F 32 °F 30.2 in NE 4 mph 7.8 mph 95% 0 in
03:47 32.5 °F 32 °F 30.2 in NNE 4.9 mph 7.8 mph 95% 0 in
03:52 32.5 °F 32 °F 30.2 in NNE 2 mph 5.8 mph 95% 0 in
03:57 32.5 °F 32 °F 30.2 in NE 4 mph 5.4 mph 95% 0 in
04:02 32.4 °F 32 °F 30.2 in NE 3.4 mph 5.6 mph 95% 0 in
04:07 32.4 °F 32 °F 30.2 in NNE 5.6 mph 6.5 mph 95% 0 in
04:12 32.4 °F 32 °F 30.2 in NE 4 mph 6.5 mph 95% 0 in
04:17 32.4 °F 32 °F 30.2 in NNW 3.6 mph 5.6 mph 95% 0 in
04:22 32.4 °F 32 °F 30.2 in NNE 4.3 mph 6 mph 95% 0 in
04:27 32.2 °F 32 °F 30.2 in NE 4 mph 6 mph 95% 0 in
04:32 32.2 °F 32 °F 30.2 in Calm   4.3 mph 95% 0 in
04:37 32 °F 30.2 °F 30.2 in NE 2.5 mph 4.3 mph 95% 0 in
04:42 32 °F 30.2 °F 30.2 in North 4.7 mph 5.8 mph 95% 0 in
04:47 32 °F 30.2 °F 30.2 in NNE 4.3 mph 5.8 mph 95% 0 in
04:52 32.2 °F 32 °F 30.2 in NNW 6 mph 6.3 mph 95% 0 in
04:57 32.2 °F 32 °F 30.2 in ENE 2.5 mph 6.7 mph 95% 0 in
05:02 32.2 °F 32 °F 30.2 in NE 2.2 mph 6.7 mph 95% 0 in
05:07 32.2 °F 32 °F 30.2 in NE 5.8 mph 6.5 mph 95% 0 in
05:12 32.2 °F 32 °F 30.2 in North 7.2 mph 7.2 mph 95% 0 in
05:17 32.2 °F 32 °F 30.2 in NNE 5.6 mph 7.6 mph 95% 0 in
05:23 32.2 °F 32 °F 30.2 in ENE 5.6 mph 7.8 mph 96% 0 in
05:28 32.2 °F 32 °F 30.2 in NNE 6 mph 7.8 mph 96% 0 in
05:33 32.2 °F 32 °F 30.2 in ENE 3.4 mph 7.4 mph 96% 0 in
05:38 32.2 °F 32 °F 30.2 in NNE 6 mph 7.4 mph 96% 0 in
05:43 32.2 °F 32 °F 30.2 in North 5.8 mph 7.6 mph 96% 0 in
05:48 32 °F 30.2 °F 30.2 in NE 7.4 mph 7.8 mph 95% 0 in
05:53 32 °F 30.2 °F 30.2 in NNE 6 mph 8.1 mph 95% 0 in
05:58 31.8 °F 30.2 °F 30.2 in NE 4.9 mph 8.1 mph 95% 0 in
06:03 31.8 °F 30.2 °F 30.2 in NNE 5.6 mph 7.4 mph 95% 0 in
06:08 31.8 °F 30.2 °F 30.2 in NE 4.3 mph 6.5 mph 95% 0 in
06:13 31.6 °F 30.2 °F 30.2 in Calm   5.4 mph 95% 0 in
06:18 31.6 °F 30.2 °F 30.2 in NNE 4.3 mph 4.3 mph 95% 0 in
06:23 31.6 °F 30.2 °F 30.2 in NNE 2 mph 4.3 mph 95% 0 in
06:28 31.6 °F 30.2 °F 30.2 in Calm   4.9 mph 95% 0 in
06:33 31.6 °F 30.2 °F 30.2 in NE 4 mph 6 mph 95% 0 in
06:38 31.8 °F 30.2 °F 30.2 in NNE 5.8 mph 6.5 mph 95% 0 in
06:43 31.8 °F 30.2 °F 30.2 in NE 7.6 mph 7.6 mph 95% 0 in
06:48 31.8 °F 30.2 °F 30.2 in NE 5.6 mph 7.6 mph 95% 0 in
06:53 32 °F 30.2 °F 30.2 in NE 6.3 mph 7.6 mph 95% 0 in
06:58 31.8 °F 30.2 °F 30.2 in NE 5.4 mph 7.6 mph 95% 0 in
07:03 31.6 °F 30.2 °F 30.2 in Calm   6.5 mph 95% 0 in
07:09 31.5 °F 28.4 °F 30.2 in NE 6 mph 6 mph 94% 0 in
07:14 31.5 °F 28.4 °F 30.2 in NE 7.2 mph 7.2 mph 94% 0 in
07:19 31.5 °F 28.4 °F 30.2 in NNE 4.3 mph 7.2 mph 94% 0 in
07:24 31.5 °F 28.4 °F 30.2 in NE 4.3 mph 7.2 mph 94% 0 in
07:29 31.3 °F 28.4 °F 30.2 in NNE 5.8 mph 6 mph 94% 0 in
07:34 31.3 °F 28.4 °F 30.2 in Calm   5.8 mph 94% 0 in
07:39 31.3 °F 28.4 °F 30.2 in NE 5.4 mph 5.8 mph 94% 0 in
07:44 31.1 °F 28.4 °F 30.2 in Calm   5.6 mph 94% 0 in
07:49 31.1 °F 28.4 °F 30.2 in NE 5.4 mph 6 mph 94% 0 in
07:54 31.3 °F 28.4 °F 30.2 in NNE 6 mph 6.3 mph 94% 0 in
07:59 31.3 °F 28.4 °F 30.2 in NE 5.8 mph 6.9 mph 94% 0 in
08:04 31.5 °F 28.4 °F 30.2 in NE 6.5 mph 6.9 mph 95% 0 in
08:09 31.5 °F 28.4 °F 30.2 in ENE 4.7 mph 7.8 mph 95% 0 in
08:14 31.5 °F 28.4 °F 30.2 in NE 3.6 mph 7.8 mph 94% 0 in
08:19 31.3 °F 28.4 °F 30.2 in NE 4.5 mph 6.5 mph 94% 0 in
08:24 31.3 °F 28.4 °F 30.2 in NE 3.8 mph 6.5 mph 94% 0 in
08:29 31.3 °F 28.4 °F 30.2 in NNE 3.8 mph 6.5 mph 94% 0 in
08:34 31.5 °F 28.4 °F 30.2 in NNE 4.9 mph 7.6 mph 94% 0 in
08:39 31.5 °F 28.4 °F 30.2 in NE 4 mph 7.6 mph 94% 0 in
08:44 31.6 °F 28.4 °F 30.2 in NNE 7.8 mph 7.8 mph 94% 0 in
08:49 31.8 °F 30.2 °F 30.2 in NNE 5.6 mph 7.8 mph 95% 0 in
08:54 32.2 °F 32 °F 30.2 in NE 4.3 mph 7.6 mph 95% 0 in
08:59 32.2 °F 32 °F 30.2 in NNE 5.8 mph 7.6 mph 95% 0 in
09:04 32.4 °F 32 °F 30.2 in NE 3.8 mph 7.6 mph 95% 0 in
09:09 32.5 °F 32 °F 30.2 in NE 4.9 mph 7.2 mph 95% 0 in
09:14 32.7 °F 32 °F 30.3 in NE 6.5 mph 7.4 mph 95% 0 in
09:20 32.9 °F 32 °F 30.3 in NE 6.3 mph 7.4 mph 94% 0 in
09:25 33.1 °F 32 °F 30.3 in NNE 5.8 mph 7.2 mph 94% 0 in
09:30 33.3 °F 32 °F 30.3 in NNW 7.4 mph 7.8 mph 94% 0 in
09:35 33.6 °F 32 °F 30.3 in NNE 5.8 mph 8.1 mph 94% 0 in
09:40 33.8 °F 32 °F 30.3 in North 7.4 mph 8.1 mph 92% 0 in
09:45 34 °F 32 °F 30.3 in NE 8.1 mph 8.7 mph 92% 0 in
09:50 34.2 °F 32 °F 30.3 in NE 8.7 mph 8.7 mph 91% 0 in
09:55 34.3 °F 32 °F 30.3 in NNE 6 mph 8.7 mph 90% 0 in
10:00 34.5 °F 32 °F 30.3 in NE 8.1 mph 8.7 mph 89% 0 in
10:05 34.7 °F 32 °F 30.3 in NE 8.1 mph 8.7 mph 89% 0 in
10:10 34.9 °F 32 °F 30.3 in NE 7.6 mph 8.1 mph 89% 0 in
10:15 35.2 °F 32 °F 30.3 in NNE 6 mph 8.1 mph 88% 0 in
10:21 35.4 °F 32 °F 30.3 in NE 6.9 mph 8.5 mph 88% 0 in
10:26 35.6 °F 32 °F 30.3 in NE 6 mph 8.5 mph 86% 0 in
10:31 35.8 °F 32 °F 30.2 in NE 8.1 mph 9.2 mph 85% 0 in
10:36 36 °F 32 °F 30.2 in NE 5.6 mph 9.2 mph 85% 0 in
10:41 36.1 °F 32 °F 30.2 in NNE 6.5 mph 8.7 mph 84% 0 in
10:46 36.5 °F 32 °F 30.3 in NE 6.5 mph 8.7 mph 83% 0 in
10:51 36.9 °F 32 °F 30.3 in NE 6 mph 8.7 mph 83% 0 in
10:56 37 °F 33.8 °F 30.3 in ENE 5.4 mph 8.5 mph 82% 0 in
11:01 37.2 °F 32 °F 30.3 in ENE 6.3 mph 8.5 mph 80% 0 in
11:06 37.4 °F 32 °F 30.3 in NE 6.3 mph 8.5 mph 78% 0 in
11:11 37.8 °F 32 °F 30.3 in ENE 7.6 mph 10.7 mph 77% 0 in
11:16 37.9 °F 32 °F 30.2 in East 8.7 mph 10.7 mph 76% 0 in
11:21 38.3 °F 32 °F 30.2 in NE 8.1 mph 8.9 mph 76% 0 in
11:26 38.5 °F 32 °F 30.2 in NE 7.4 mph 8.7 mph 74% 0 in
11:31 38.8 °F 32 °F 30.2 in ENE 7.4 mph 8.5 mph 74% 0 in
11:36 38.8 °F 30.2 °F 30.2 in ENE 7.2 mph 11.4 mph 72% 0 in
11:41 39 °F 30.2 °F 30.2 in ENE 6.3 mph 11.4 mph 70% 0 in
11:46 39.4 °F 30.2 °F 30.3 in ENE 7.4 mph 10.5 mph 70% 0 in
11:51 39.4 °F 30.2 °F 30.3 in NE 6.5 mph 10.5 mph 69% 0 in
11:56 39.6 °F 30.2 °F 30.3 in ENE 7.6 mph 10.5 mph 69% 0 in
12:02 39.7 °F 30.2 °F 30.3 in NE 9.8 mph 10.3 mph 67% 0 in
12:07 39.9 °F 30.2 °F 30.3 in ENE 7.6 mph 10.3 mph 67% 0 in
12:12 40.1 °F 30.2 °F 30.3 in ENE 6.3 mph 10.1 mph 66% 0.01 in
12:17 40.3 °F 30.2 °F 30.3 in East 5.8 mph 10.1 mph 66% 0.01 in
12:22 40.5 °F 30.2 °F 30.3 in NE 7.8 mph 10.1 mph 65% 0.01 in
12:27 40.5 °F 30.2 °F 30.3 in ENE 7.6 mph 10.1 mph 65% 0.01 in
12:32 40.6 °F 30.2 °F 30.3 in ENE 6.5 mph 10.1 mph 65% 0.01 in
12:37 40.8 °F 30.2 °F 30.3 in ENE 3.4 mph 10.1 mph 66% 0.01 in
12:42 41 °F 30.2 °F 30.3 in NE 10.3 mph 11 mph 64% 0.01 in
12:47 40.8 °F 28.4 °F 30.3 in NE 7.8 mph 11 mph 62% 0.01 in
12:52 41 °F 30.2 °F 30.3 in ENE 8.5 mph 10.3 mph 63% 0.01 in
12:57 41 °F 30.2 °F 30.3 in ENE 8.1 mph 9.6 mph 63% 0.01 in
13:02 41 °F 28.4 °F 30.3 in NE 8.5 mph 10.3 mph 61% 0.01 in
13:07 41.2 °F 30.2 °F 30.3 in NNE 6.3 mph 10.3 mph 63% 0.01 in
13:12 41.4 °F 30.2 °F 30.3 in ENE 7.4 mph 8.5 mph 63% 0 in
13:17 41.7 °F 30.2 °F 30.3 in ENE 8.1 mph 9.2 mph 64% 0 in
13:22 42.1 °F 32 °F 30.3 in NNE 6.5 mph 9.2 mph 65% 0 in
13:27 42.1 °F 30.2 °F 30.3 in NE 8.5 mph 8.7 mph 63% 0 in
13:32 42.1 °F 30.2 °F 30.3 in NNE 10.1 mph 10.1 mph 61% 0 in
13:37 41.9 °F 30.2 °F 30.3 in NE 10.5 mph 10.7 mph 60% 0 in
13:42 42.1 °F 30.2 °F 30.3 in NNE 8.5 mph 10.7 mph 61% 0 in
13:47 41.9 °F 30.2 °F 30.3 in ENE 7.6 mph 10.5 mph 60% 0 in
13:52 42.1 °F 30.2 °F 30.3 in NE 7.4 mph 10.5 mph 60% 0 in
13:57 42.1 °F 30.2 °F 30.3 in NNE 7.8 mph 10.5 mph 60% 0 in
14:02 42.4 °F 30.2 °F 30.2 in NE 8.5 mph 10.7 mph 60% 0 in
14:07 42.4 °F 30.2 °F 30.2 in ENE 6.5 mph 10.7 mph 61% 0 in
14:13 42.6 °F 30.2 °F 30.2 in NE 9.2 mph 12.3 mph 60% 0 in
14:18 42.4 °F 30.2 °F 30.2 in NE 9.8 mph 13 mph 60% 0 in
14:23 42.3 °F 30.2 °F 30.2 in NE 8.7 mph 13 mph 59% 0 in
14:28 42.4 °F 30.2 °F 30.2 in NE 8.5 mph 12.8 mph 59% 0 in
14:33 42.4 °F 30.2 °F 30.2 in NNE 10.3 mph 12.8 mph 58% 0 in
14:38 42.4 °F 30.2 °F 30.2 in NE 6.3 mph 12.3 mph 59% 0 in
14:43 42.4 °F 28.4 °F 30.2 in NNW 8.7 mph 12.5 mph 56% 0 in
14:48 42.4 °F 28.4 °F 30.2 in NNE 10.3 mph 13.4 mph 57% 0 in
14:53 42.4 °F 28.4 °F 30.2 in NE 8.5 mph 15.4 mph 56% 0 in
14:58 42.4 °F 28.4 °F 30.2 in ENE 7.8 mph 15.4 mph 54% 0 in
15:03 42.4 °F 28.4 °F 30.2 in NE 10.7 mph 14.5 mph 55% 0 in
15:08 42.6 °F 28.4 °F 30.2 in NNE 11.4 mph 14.5 mph 57% 0 in
15:13 42.8 °F 28.4 °F 30.2 in NNE 7.6 mph 13 mph 57% 0 in
15:18 42.8 °F 28.4 °F 30.2 in NE 8.1 mph 11.4 mph 57% 0 in
15:23 43 °F 30.2 °F 30.2 in NNE 7.8 mph 9.8 mph 58% 0 in
15:28 43 °F 30.2 °F 30.2 in ENE 8.7 mph 11 mph 58% 0 in
15:33 43 °F 28.4 °F 30.2 in NE 10.7 mph 13 mph 56% 0 in
15:38 42.8 °F 26.6 °F 30.2 in NE 9.6 mph 13.2 mph 53% 0 in
15:43 42.8 °F 28.4 °F 30.2 in NNE 10.3 mph 13.2 mph 54% 0 in
15:48 42.8 °F 26.6 °F 30.2 in NE 10.1 mph 15.4 mph 53% 0 in
15:53 42.6 °F 26.6 °F 30.2 in ENE 8.1 mph 15.4 mph 53% 0 in
15:58 42.6 °F 28.4 °F 30.2 in NE 10.3 mph 13 mph 55% 0 in
16:03 42.6 °F 28.4 °F 30.2 in NE 7.8 mph 12.3 mph 57% 0 in
16:08 42.8 °F 28.4 °F 30.2 in NE 9.8 mph 12.3 mph 56% 0 in
16:13 42.6 °F 30.2 °F 30.2 in NE 8.7 mph 11 mph 58% 0 in
16:19 42.4 °F 28.4 °F 30.2 in NE 11.2 mph 13 mph 55% 0 in
16:24 42.3 °F 26.6 °F 30.2 in NE 7.8 mph 13 mph 54% 0 in
16:29 42.3 °F 26.6 °F 30.2 in NNE 9.8 mph 12.8 mph 55% 0 in
16:34 42.1 °F 26.6 °F 30.2 in NE 7.6 mph 12.5 mph 55% 0 in
16:39 41.7 °F 26.6 °F 30.2 in NE 7.8 mph 12.8 mph 53% 0 in
16:44 41.7 °F 26.6 °F 30.2 in NE 7.8 mph 12.8 mph 54% 0 in
16:49 41.5 °F 26.6 °F 30.2 in ENE 9.4 mph 11 mph 54% 0 in
16:54 41.5 °F 26.6 °F 30.2 in NE 6.3 mph 11.2 mph 55% 0 in
16:59 41.4 °F 26.6 °F 30.2 in NNE 7.8 mph 11.2 mph 56% 0 in
17:04 41.2 °F 26.6 °F 30.2 in NE 9.6 mph 12.3 mph 57% 0 in
17:09 41 °F 28.4 °F 30.2 in NNE 5.6 mph 12.3 mph 59% 0 in
17:14 40.8 °F 28.4 °F 30.2 in NNE 8.5 mph 10.5 mph 61% 0 in
17:19 40.6 °F 28.4 °F 30.2 in NE 8.7 mph 10.5 mph 61% 0 in
17:24 40.5 °F 28.4 °F 30.2 in NE 7.8 mph 10.5 mph 61% 0 in
17:29 40.3 °F 28.4 °F 30.2 in NE 8.9 mph 10.3 mph 61% 0 in
17:34 40.3 °F 28.4 °F 30.2 in NNE 7.6 mph 10.3 mph 62% 0 in
17:39 39.9 °F 28.4 °F 30.2 in NE 8.5 mph 8.7 mph 63% 0 in
17:44 39.6 °F 28.4 °F 30.2 in NNE 7.4 mph 8.9 mph 64% 0 in
17:50 39.2 °F 28.4 °F 30.2 in NNE 5.4 mph 9.6 mph 64% 0 in
17:55 38.8 °F 28.4 °F 30.2 in NE 6 mph 9.6 mph 66% 0 in
18:00 38.7 °F 28.4 °F 30.2 in NE 7.8 mph 8.7 mph 66% 0 in
18:05 38.3 °F 28.4 °F 30.2 in NNE 2.9 mph 8.1 mph 67% 0 in
18:10 37.9 °F 28.4 °F 30.2 in NNE 5.8 mph 7.8 mph 69% 0 in
18:15 37.6 °F 30.2 °F 30.2 in NNE 6.3 mph 7.6 mph 71% 0 in
18:20 37.2 °F 30.2 °F 30.2 in NE 6 mph 7.6 mph 72% 0 in
18:25 36.9 °F 30.2 °F 30.2 in NE 5.4 mph 7.8 mph 73% 0 in
18:30 36.7 °F 30.2 °F 30.2 in NNE 3.6 mph 8.1 mph 73% 0 in
18:35 36.5 °F 30.2 °F 30.2 in NNW 6 mph 8.1 mph 74% 0 in
18:40 36.1 °F 30.2 °F 30.2 in NNE 5.4 mph 6.5 mph 74% 0 in
18:45 36 °F 30.2 °F 30.2 in NNE 5.8 mph 7.4 mph 75% 0 in
18:50 35.8 °F 30.2 °F 30.2 in NE 4.9 mph 8.1 mph 76% 0 in
18:55 35.6 °F 30.2 °F 30.2 in NE 3.4 mph 8.1 mph 76% 0 in
19:00 35.6 °F 30.2 °F 30.2 in NNE 7.2 mph 7.8 mph 77% 0 in
19:05 35.4 °F 30.2 °F 30.2 in North 3.6 mph 8.1 mph 78% 0 in
19:10 35.2 °F 28.4 °F 30.2 in North 7.4 mph 8.1 mph 78% 0 in
19:15 35.1 °F 28.4 °F 30.2 in NE 3.8 mph 8.5 mph 78% 0 in
19:20 35.1 °F 30.2 °F 30.2 in NE 5.4 mph 9.6 mph 79% 0 in
19:25 35.1 °F 30.2 °F 30.2 in NNE 7.8 mph 9.6 mph 79% 0 in
19:30 34.9 °F 30.2 °F 30.2 in NNE 4.9 mph 8.5 mph 79% 0 in
19:35 34.9 °F 30.2 °F 30.2 in ENE 2.9 mph 7.8 mph 79% 0 in
19:40 34.5 °F 28.4 °F 30.2 in North 0.9 mph 7.8 mph 79% 0 in
19:45 34.2 °F 28.4 °F 30.2 in NNE 3.4 mph 6 mph 79% 0 in
19:50 34.2 °F 30.2 °F 30.2 in NNE 4.3 mph 8.1 mph 80% 0 in
19:55 34.3 °F 30.2 °F 30.2 in NNE 5.4 mph 8.1 mph 82% 0 in
20:00 34.3 °F 30.2 °F 30.2 in NE 7.4 mph 7.8 mph 83% 0 in
20:05 34.2 °F 30.2 °F 30.2 in NE 5.8 mph 7.6 mph 84% 0 in
20:10 34.2 °F 30.2 °F 30.2 in NE 4 mph 7.6 mph 84% 0 in
20:16 34 °F 30.2 °F 30.2 in NNE 5.6 mph 7.6 mph 84% 0 in
20:21 34 °F 30.2 °F 30.2 in NNE 5.8 mph 7.6 mph 85% 0 in
20:26 34 °F 30.2 °F 30.2 in NE 3.4 mph 7.6 mph 85% 0 in
20:31 33.8 °F 30.2 °F 30.2 in NE 5.4 mph 7.8 mph 85% 0 in
20:36 33.8 °F 30.2 °F 30.2 in NNE 5.4 mph 8.7 mph 86% 0 in
20:41 33.8 °F 30.2 °F 30.2 in NNE 4 mph 8.7 mph 86% 0 in
20:46 33.6 °F 30.2 °F 30.2 in NE 5.8 mph 7.4 mph 87% 0 in
20:51 33.6 °F 30.2 °F 30.2 in NE 6.5 mph 7.4 mph 87% 0 in
20:56 33.6 °F 30.2 °F 30.2 in NNE 5.6 mph 7.2 mph 87% 0 in
21:01 33.4 °F 30.2 °F 30.2 in NE 5.8 mph 7.6 mph 87% 0 in
21:06 33.4 °F 30.2 °F 30.2 in NE 5.8 mph 7.6 mph 88% 0 in
21:11 33.4 °F 30.2 °F 30.2 in NE 5.4 mph 7.2 mph 88% 0 in
21:16 33.6 °F 30.2 °F 30.2 in NE 5.8 mph 7.2 mph 88% 0 in
21:21 33.6 °F 30.2 °F 30.2 in NNE 5.8 mph 7.8 mph 88% 0 in
21:26 33.4 °F 30.2 °F 30.2 in NNE 6.3 mph 7.8 mph 88% 0 in
21:31 33.4 °F 30.2 °F 30.2 in North 3.8 mph 8.1 mph 88% 0 in
21:37 33.4 °F 30.2 °F 30.2 in NE 4 mph 8.1 mph 88% 0 in
21:42 33.3 °F 30.2 °F 30.2 in NNE 5.4 mph 8.5 mph 88% 0 in
21:47 33.3 °F 30.2 °F 30.2 in NE 5.8 mph 8.5 mph 88% 0 in
21:52 33.3 °F 30.2 °F 30.2 in NNE 4.9 mph 8.1 mph 89% 0 in
21:57 33.3 °F 30.2 °F 30.2 in North 5.8 mph 8.5 mph 89% 0 in
22:02 33.1 °F 30.2 °F 30.2 in NNE 5.8 mph 8.5 mph 89% 0 in
22:07 33.1 °F 30.2 °F 30.2 in NE 4.9 mph 8.5 mph 89% 0 in
22:12 33.1 °F 30.2 °F 30.2 in NNE 5.4 mph 8.5 mph 90% 0 in
22:17 33.1 °F 30.2 °F 30.2 in North 4.7 mph 7.2 mph 90% 0 in
22:22 32.9 °F 30.2 °F 30.2 in NNE 4.5 mph 7.2 mph 90% 0 in
22:27 32.7 °F 30.2 °F 30.2 in NNE 7.6 mph 7.6 mph 90% 0 in
22:32 32.9 °F 30.2 °F 30.2 in NNE 6 mph 8.1 mph 90% 0 in
22:38 32.9 °F 30.2 °F 30.2 in NE 6 mph 8.1 mph 90% 0 in
22:43 32.9 °F 30.2 °F 30.2 in NNE 6.7 mph 7.8 mph 90% 0 in
22:48 32.9 °F 30.2 °F 30.2 in NNE 6.3 mph 7.8 mph 90% 0 in
22:53 32.9 °F 30.2 °F 30.2 in NE 7.4 mph 7.6 mph 90% 0 in
22:58 32.7 °F 30.2 °F 30.2 in NNE 4.9 mph 7.6 mph 90% 0 in
23:03 32.7 °F 30.2 °F 30.2 in NNE 6 mph 7.2 mph 89% 0 in
23:08 32.7 °F 30.2 °F 30.2 in NNE 5.4 mph 7.4 mph 90% 0 in
23:13 32.7 °F 30.2 °F 30.2 in NNE 5.6 mph 8.5 mph 90% 0 in
23:18 32.5 °F 30.2 °F 30.2 in NNE 5.6 mph 8.5 mph 90% 0 in
23:23 32.7 °F 30.2 °F 30.2 in NE 5.6 mph 8.5 mph 90% 0 in
23:28 32.7 °F 30.2 °F 30.2 in NE 6.3 mph 8.5 mph 90% 0 in
23:34 32.7 °F 30.2 °F 30.2 in NNE 6.5 mph 8.7 mph 90% 0 in
23:39 32.7 °F 30.2 °F 30.2 in NE 6.5 mph 8.7 mph 90% 0 in
23:44 32.9 °F 30.2 °F 30.2 in NNE 5.8 mph 8.7 mph 89% 0 in
23:49 32.9 °F 30.2 °F 30.2 in NNE 5.4 mph 8.1 mph 89% 0 in
23:54 32.9 °F 30.2 °F 30.2 in NNE 8.1 mph 8.7 mph 89% 0 in
23:59 32.7 °F 30.2 °F 30.2 in ENE 5.8 mph 8.7 mph 89% 0 in
Données Historique de Météo Turbie

Mise a jour : 23/06/2018 12:09:17
Généré par Cumulus 1.9.4 (1099)